Weather History for HEGN - April, 2013

Change the Weather History Date:

Wednesday, April 24, 2013

  Actual Average Record
Temperature  
Mean Temperature 76 °F -  
Max Temperature 90 °F 87 °F 100 °F (2014)
Min Temperature 62 °F 70 °F 58 °F (2015)
Cooling Degree Days 11    
Growing Degree Days 26 (Base 50)    
Moisture  
Dew Point 49 °F    
Average Humidity 37    
Maximum Humidity 56    
Minimum Humidity 23    
Precipitation  
Precipitation 0.00 in - - ()
Sea Level Pressure  
Sea Level Pressure 29.97 in    
Wind  
Wind Speed 12 mph ()    
Max Wind Speed 20 mph    
Max Gust Speed -    
Visibility 6.0 miles    
Events      
Averages and records for this station are not official NWS values.
T = Trace of Precipitation, MM = Missing Value Source: Averaged Metar Reports

Daily Weather History Graph

Daily Weather History Graph

Search for Another Location

Airport or City:

Trip Planner

Search our weather history database for the weather conditions in past years. The results will help you decide how hot, cold, wet, or windy it might be!

Date:

Astronomy

Apr. 24, 2013 Rise Set
Actual Time 5:12 AM EET 6:14 PM EET
Civil Twilight 4:47 AM EET 6:38 PM EET
Nautical Twilight 4:19 AM EET 7:07 PM EET
Astronomical Twilight 3:49 AM EET 7:36 PM EET
Moon 4:58 PM EET (4/24) 3:55 AM EET (4/24)
Length of Visible Light 13h 50m
Length of Day
13h 02m
Waxing Gibbous, 97% of the Moon is Illuminated
Apr 24
Waxing Gibbous
Apr 25
Full
May 2
Last Quarter
May 10
New
May 18
First Quarter

Hourly Weather History & Observations

Time (EET) Temp. Heat Index Dew Point Humidity Pressure Visibility Wind Dir Wind Speed Gust Speed Precip Events Conditions
12:00 AM 69.8 °F - 42.8 °F 38% 29.98 in - NW 11.5 mph - N/A   Clear
1:00 AM 71.6 °F - 39.2 °F 31% 29.98 in - WNW 15.0 mph - N/A   Clear
2:00 AM 69 °F - 40 °F 23% 29.98 in 6 mi NNW 13.8 mph - -  
2:00 AM 69.8 °F - 39.2 °F 33% 29.98 in - NNW 13.8 mph - N/A   Clear
3:00 AM 66.2 °F - 39.2 °F 37% 29.98 in - NW 10.4 mph - N/A   Clear
4:00 AM 64.4 °F - 42.8 °F 45% 29.98 in - NW 11.5 mph - N/A   Clear
5:00 AM 64.4 °F - 48.2 °F 56% 29.98 in - NW 9.2 mph - N/A   Clear
6:00 AM 64.4 °F - 48.2 °F 56% 30.01 in - NNW 6.9 mph - N/A   Clear
7:00 AM 69.8 °F - 50.0 °F 49% 30.01 in - North 13.8 mph - N/A   Clear
8:00 AM 73 °F - 51 °F 35% 30.03 in 6 mi North 19.6 mph - -  
8:00 AM 73.4 °F - 50.0 °F 44% 30.01 in - North 19.6 mph - N/A   Clear
9:00 AM 77.0 °F - 53.6 °F 44% 30.04 in - North 17.3 mph - N/A   Clear
10:00 AM 78.8 °F - 51.8 °F 39% 30.01 in - North 17.3 mph - N/A   Clear
11:00 AM 82.4 °F 81.7 °F 55.4 °F 39% 30.01 in - North 16.1 mph - N/A   Clear
12:00 PM 87.8 °F 86.1 °F 55.4 °F 33% 30.01 in - NNE 11.5 mph - N/A   Clear
1:00 PM 89.6 °F 88.9 °F 59.0 °F 36% 29.98 in - NNE 13.8 mph - N/A   Clear
2:00 PM 89 °F - 59 °F 26% 29.97 in 6 mi North 9.2 mph - -  
2:00 PM 89.6 °F 88.9 °F 59.0 °F 36% 29.95 in - North 9.2 mph - N/A   Clear
3:00 PM 89.6 °F 87.7 °F 55.4 °F 31% 29.95 in - NNE 8.1 mph - N/A   Clear
4:00 PM 87.8 °F 86.1 °F 55.4 °F 33% 29.92 in - NNE 9.2 mph - N/A   Clear
5:00 PM 84.2 °F - 51.8 °F 33% 29.92 in - North 13.8 mph - N/A   Clear
6:00 PM 80.6 °F - 51.8 °F 37% 29.92 in - NNW 12.7 mph - N/A   Clear
7:00 PM 78.8 °F - 55.4 °F 44% 29.92 in - NNW 12.7 mph - N/A   Clear
8:00 PM 78 °F - 47 °F 23% 29.96 in 6 mi North 16.1 mph - -  
8:00 PM 78.8 °F - 48.2 °F 34% 29.95 in - North 16.1 mph - N/A   Clear
9:00 PM 77.0 °F - 44.6 °F 32% 29.95 in - NNW 12.7 mph - N/A   Clear
10:00 PM 75.2 °F - 42.8 °F 31% 29.95 in - NW 11.5 mph - N/A   Clear
11:00 PM 75.2 °F - 46.4 °F 36% 29.95 in - NW 15.0 mph - N/A   Clear